Weather in Butkan

Russia / Komi Republic     63°21′44″N   49°05′52″E
temp.,
°C
wind,
m/s
gust,
m/s
humid.,
%
clouds,
%
prec.,
mm/h
press.,
hPa
HPBL,
m
8 december, wed
wed800:00−20se279974 0.0 1033100
03:00−14ese41489100 0.0 1030327
06:00−12se51581100 0.0 1028482
09:00−10se51594100 0.5 1026614
12:00−9se51294100 0.9 1024722
15:00−9se41094100 1.6 1023613
18:00−10se399499 0.3 1022427
21:00−11se2796100 0.5 1022225
9 december, thu
thu900:00−12se2597100 0.2 1022123
03:00−12se2597100 0.4 102296
06:00−14sse1198100 0.1 102123
09:00−15s119895 0.3 10229
12:00−13sw119792 0.1 102251
15:00−16w119984 0.2 102213
18:00−19w2310081 0.1 102334
21:00−19w2510094 0.1 102385
10 december, fri
fri1000:00−17w279889 0.1 1024144
03:00−15w389678 0.1 1024251
06:00−17w379881 0.1 1026154
09:00−17w399796 0.1 1028219
12:00−17w31098100 0.1 1030214
15:00−15w31397100 0.1 1031275
18:00−15w3109885 0.0 1032193
21:00−14w3119470 0.0 1033220
11 december, sat
sat1100:00−15w411945 0.0 1034226
03:00−16w3119314 0.0 1035225
06:00−16w399475 0.0 1036166
09:00−14w31092100 0.0 1037204
12:00−12w3109298 0.0 1037233
15:00−13w31091100 0.0 1037203
18:00−13wsw3109095 0.0 1038216
21:00−14wsw3118937 0.0 1038199
12 december, sun
sun1200:00−14wsw313876 0.0 1037235
03:00−12wsw413845 0.0 1037278
06:00−12wsw414815 0.0 1036284
09:00−12sw414795 0.0 1035273
12:00−11sw413809 0.0 1034327
15:00−12sw4128481 0.0 1033276
18:00−12sw31186100 0.0 1032297
21:00−9sw31294100 0.1 1030381